Lapse_Rate
6.2 6.0 5.8 5.7 5.6 5.3 5.0 4.9 4.8 5.2 5.8 5.7 5.3 5.1 4.9 4.9 4.9 4.8 4.8 5.4 5.7 5.8 6.0 6.1 6.1 5.8 5.9 5.7 5.4 5.2 4.9 5.2 4.9 4.8 4.4 4.2 4.6 5.5
5.7 5.5 5.3 5.0 4.7 4.6 4.5 4.5 4.5 4.5 4.5 5.0 5.0 5.1 5.2 5.3 5.4 5.4 5.4 5.2 5.3 5.8 6.1 6.3 6.3 6.2 6.3 5.9 5.7 5.6 5.7 5.3 4.7 4.5 4.3 4.6 5.1 5.1
5.0 4.8 4.4 4.3 4.2 4.2 4.3 4.2 4.3 4.3 4.3 4.7 4.9 5.6 6.1 6.4 6.3 6.3 6.3 6.0 6.1 5.8 6.3 6.6 6.4 6.4 5.9 6.2 5.8 5.7 5.6 5.3 5.1 4.6 4.8 4.3 4.5 4.8
4.6 4.4 4.4 4.2 4.1 4.1 4.1 4.1 4.3 4.8 5.4 5.9 6.5 7.1 7.2 7.3 7.1 7.0 6.9 6.8 6.6 6.6 7.8 7.0 6.9 6.5 6.5 6.2 6.0 6.0 5.8 5.5 4.9 5.2 4.7 4.7 4.7 5.5
4.4 4.3 4.2 4.1 4.1 4.2 4.2 4.5 5.5 6.2 6.4 7.0 7.6 7.7 7.7 7.1 7.0 7.1 7.2 6.5 5.9 6.0 6.6 6.6 6.5 5.6 5.4 6.0 5.8 5.9 5.7 5.7 5.6 4.8 4.8 4.1 4.4 5.2
4.2 4.2 4.0 4.1 4.2 4.3 5.2 6.3 7.1 7.6 7.2 7.2 7.3 7.4 7.2 7.2 6.3 5.7 6.0 6.1 6.7 7.0 6.5 6.1 6.0 6.0 5.7 5.7 5.5 5.2 5.5 5.3 5.2 4.8 3.2 3.9 4.1 4.5
3.9 3.8 4.1 4.2 4.7 6.0 7.1 7.5 7.3 7.1 7.0 6.9 6.9 6.9 6.9 6.6 6.2 5.9 6.0 6.2 6.7 6.8 7.0 7.0 7.2 6.1 6.0 5.7 5.6 5.9 5.6 5.2 4.9 4.5 3.8 3.5 3.7 3.5
3.8 4.0 4.3 5.5 6.8 7.2 7.1 7.1 7.0 6.8 6.9 6.9 6.9 6.7 6.5 6.5 6.2 6.1 6.2 6.3 6.8 6.6 7.0 7.1 7.3 7.3 6.1 6.5 6.2 5.6 5.7 5.3 4.6 4.9 4.9 3.2 3.3 3.8
3.9 4.8 6.5 7.2 7.3 7.1 7.1 7.0 6.8 6.8 6.7 6.7 6.6 6.5 6.3 6.4 6.1 6.1 6.4 6.6 6.7 6.8 6.8 7.1 6.9 6.7 6.8 6.0 5.7 5.2 5.2 4.6 4.7 4.6 5.3 4.6 4.1 4.1
5.3 6.9 7.2 7.4 7.4 7.1 7.0 7.0 6.9 6.8 6.8 6.6 6.3 6.3 6.3 6.3 6.1 5.9 5.9 5.9 5.8 6.2 6.3 6.8 6.5 6.2 5.8 5.4 4.9 4.9 5.1 4.6 4.0 4.5 4.5 4.8 4.5 4.6
6.9 7.2 7.4 7.4 7.2 7.2 7.2 6.9 6.7 6.9 6.7 6.3 6.2 6.5 6.5 6.1 5.8 5.9 5.8 5.5 5.4 5.4 5.6 5.8 5.8 5.7 5.6 5.2 5.3 5.0 5.0 4.7 4.6 4.4 4.0 4.5 4.6 4.9
7.3 7.2 7.3 7.4 7.3 7.2 7.1 6.8 6.8 6.8 6.7 6.6 6.6 6.7 6.5 5.8 5.8 5.7 5.5 5.3 5.2 5.0 5.1 5.3 5.3 5.3 5.5 5.5 4.9 4.4 4.6 4.6 4.4 4.2 4.1 4.2 4.4 4.5
7.3 7.4 7.4 7.4 7.3 7.3 7.0 6.8 6.9 6.9 6.8 6.7 6.7 6.7 6.2 5.6 5.5 5.5 5.2 4.8 4.6 4.8 5.0 4.9 5.0 5.2 5.3 5.0 4.3 4.2 4.6 4.1 3.8 4.0 4.3 4.5 4.5 4.6
7.4 7.4 7.3 7.3 7.1 7.1 6.9 6.7 6.9 7.0 6.8 6.7 6.6 6.4 6.2 5.5 5.1 5.1 5.1 5.0 4.8 4.8 4.9 4.8 4.6 4.4 4.3 4.2 4.3 4.5 4.2 4.1 4.3 4.5 4.4 4.2 4.2 4.1
7.5 7.4 7.1 7.2 7.1 6.8 6.7 6.7 6.6 6.7 6.4 6.4 6.4 6.1 5.9 5.7 5.1 5.0 4.9 4.9 5.0 5.0 5.0 4.9 4.6 4.8 4.6 4.5 4.3 4.3 4.4 4.6 4.4 4.1 4.0 4.0 3.9 3.9
7.7 7.5 7.2 7.1 7.0 6.7 6.5 6.4 6.4 6.3 6.1 5.9 5.8 5.9 5.5 5.4 5.2 5.0 5.0 4.9 4.9 4.9 4.8 4.8 4.8 4.7 4.6 4.7 4.7 4.6 4.4 4.2 4.1 4.2 4.2 4.4 4.5 4.6
7.8 7.7 7.4 7.1 7.0 6.7 6.6 6.3 6.4 6.3 6.1 5.8 5.5 5.6 5.4 5.4 5.2 4.9 4.9 4.9 4.9 4.9 4.8 4.7 4.6 4.5 4.3 4.3 4.3 4.2 4.1 4.1 4.3 4.5 4.7 4.7 4.9 5.0
7.9 7.7 7.5 7.2 7.0 6.9 6.6 6.5 6.6 6.4 5.9 5.5 5.3 5.2 5.2 5.4 5.5 5.3 5.1 4.9 4.8 4.6 4.4 4.3 4.2 4.2 4.2 4.4 4.6 4.7 4.8 4.8 5.0 5.2 5.4 5.6 5.7 5.9
7.9 7.8 7.5 7.3 7.2 7.0 6.8 6.6 6.5 6.4 6.1 5.7 5.4 5.2 5.1 5.1 5.1 5.1 5.0 4.9 4.9 4.8 4.7 4.8 4.9 5.0 5.1 5.2 5.2 5.4 5.6 5.7 5.9 6.0 6.1 6.2 6.3 6.1
8.2 7.8 7.5 7.2 7.1 6.9 6.8 6.5 6.5 6.4 6.3 6.0 5.6 5.5 5.4 5.3 5.3 5.2 5.3 5.4 5.4 5.4 5.4 5.4 5.4 5.4 5.6 5.8 6.0 6.0 6.0 6.0 6.1 6.2 6.3 6.3 6.4 6.4
8.2 7.8 7.5 7.2 7.1 6.9 6.6 6.5 6.5 6.4 6.3 6.1 5.9 5.8 5.7 5.8 5.7 5.6 5.6 5.6 5.6 5.5 5.5 5.5 5.6 5.7 5.8 5.9 5.9 6.0 6.0 6.1 6.2 6.2 6.2 6.3 6.3 6.3
7.8 7.9 7.4 7.2 7.1 6.8 6.6 6.5 6.4 6.3 6.2 6.0 5.7 5.6 5.7 5.8 5.8 5.7 5.7 5.6 5.7 5.8 5.9 6.0 6.1 6.1 6.1 6.1 6.1 6.1 6.0 6.0 6.1 6.1 6.2 6.3 6.4 6.5
7.5 7.6 7.3 7.1 7.0 6.7 6.4 6.3 6.2 6.0 6.0 5.9 5.9 5.9 5.8 5.7 5.8 5.9 5.9 5.9 6.0 6.1 6.2 6.2 6.2 6.2 6.1 6.1 6.1 5.9 5.9 6.0 6.0 5.9 5.7 5.6 5.8 5.7
Wind_Speed
3 3 2 2 3 3 3 4 6 10 14 8 6 3 7 13 17 21 24 29 31 33 36 34 32 31 28 24 21 19 14 11 9 7 8 12 14 12
3 5 4 3 4 3 4 5 6 8 10 11 11 11 10 12 16 21 23 27 27 33 36 35 35 31 28 27 24 20 19 20 15 12 16 15 15 12
4 5 5 6 4 5 4 5 5 6 10 15 12 13 15 14 14 16 22 20 20 29 34 35 34 32 28 29 27 25 21 17 17 18 18 19 18 13
5 5 5 6 6 6 5 7 7 7 8 15 15 13 15 16 14 11 10 15 14 20 28 27 23 26 28 24 26 26 26 23 18 22 20 15 16 18
4 6 6 6 6 5 6 7 7 7 8 10 14 11 12 12 13 11 9 7 8 12 19 27 28 23 21 26 29 27 28 28 25 20 20 19 19 18
5 4 5 6 6 6 7 7 7 7 8 9 10 11 11 13 8 5 2 1 4 9 17 20 22 30 29 27 28 31 27 27 23 24 25 27 25 17
3 3 3 6 10 10 5 6 7 6 8 9 10 9 9 7 4 2 1 2 5 3 8 7 12 14 21 28 29 29 31 25 25 24 23 23 22 17
3 3 5 6 9 12 11 11 8 8 8 5 8 9 9 9 3 2 4 3 2 4 4 7 7 9 9 16 28 28 27 26 23 22 21 17 13 13
3 4 5 5 8 9 8 9 7 10 8 8 10 10 9 4 3 2 4 4 3 5 9 9 5 10 12 19 24 24 23 21 19 18 19 15 14 12
4 5 5 6 7 9 5 5 5 7 9 7 8 8 6 5 3 5 9 11 10 8 6 5 5 7 6 11 17 20 21 18 15 16 18 16 14 12
3 3 5 6 12 12 3 4 6 8 12 15 16 20 21 13 8 8 7 9 6 2 3 3 2 5 4 5 13 20 18 13 11 14 19 17 13 12
2 3 7 5 9 10 4 5 6 6 8 9 9 12 16 16 19 6 2 6 5 3 2 3 4 3 3 3 6 9 11 11 7 3 21 17 14 10
1 2 3 6 7 7 7 7 6 5 6 5 6 7 8 9 8 10 9 5 4 4 4 4 3 3 3 3 2 4 9 6 5 8 19 16 13 11
2 1 3 0 5 4 4 9 8 4 3 4 6 7 7 7 7 8 15 17 16 8 10 7 3 3 3 3 3 3 4 5 8 6 10 9 6 3
2 2 5 6 5 5 8 9 5 3 2 4 5 4 4 4 5 5 13 17 20 19 17 11 7 6 3 3 4 3 3 2 5 4 5 6 4 4
4 4 4 3 3 2 3 6 3 2 2 2 2 2 2 3 5 3 5 5 7 7 17 17 12 5 5 5 6 3 3 3 1 2 5 7 10 10
4 2 3 3 2 3 3 4 3 3 4 2 3 3 3 3 3 3 3 5 6 4 6 8 19 21 13 6 5 4 4 4 3 3 3 2 3 6
3 2 1 1 2 0 0 2 2 2 2 3 3 2 2 3 3 4 5 6 6 5 5 3 2 3 4 11 14 5 4 2 2 4 3 2 1 2
2 2 3 3 3 2 2 1 1 1 0 3 3 3 2 3 3 4 5 5 5 4 3 2 4 3 3 2 3 15 3 2 1 2 1 0 2 2
2 3 3 4 3 3 3 2 1 1 2 2 3 3 3 2 2 3 3 4 4 3 4 4 4 3 2 3 3 2 7 2 2 1 2 2 8 14
3 2 3 4 3 3 3 2 3 3 3 3 2 3 2 3 3 3 4 5 4 2 3 2 1 1 4 3 3 3 3 9 6 1 2 0 2 3
4 4 3 3 4 4 3 3 3 2 3 3 2 3 2 3 3 3 3 3 2 2 2 1 3 2 3 2 2 2 2 4 7 7 7 5 3 3
5 5 3 3 3 3 4 4 3 3 3 4 4 3 3 3 2 3 3 3 4 3 1 1 2 2 2 2 2 0 2 3 2 4 3 10 11 17
Wind_Direction
33 14 352 340 1 345 318 297 286 297 293 291 298 279 271 258 237 237 235 240 225 215 206 197 194 193 195 197 195 186 189 220 224 227 213 219 166 159
9 7 8 352 352 346 348 328 313 300 291 297 289 289 290 280 257 237 239 239 230 219 207 196 194 189 189 190 179 175 175 191 194 201 220 183 157 152
8 10 355 352 341 337 330 316 307 306 295 296 297 302 294 286 275 239 234 234 238 218 212 201 187 185 189 174 165 164 171 188 190 185 152 162 145 137
348 357 345 344 343 338 335 322 313 303 291 292 295 299 289 292 274 250 238 234 233 221 213 204 186 170 160 156 148 149 148 130 130 146 139 144 131 126
5 347 347 344 329 318 318 303 309 306 299 288 295 296 290 286 282 251 219 212 198 185 194 181 161 146 139 134 128 127 123 118 112 101 108 113 111 112
15 357 340 333 318 324 311 299 307 295 289 285 288 299 299 291 245 242 296 235 180 147 143 142 127 122 123 117 122 120 113 109 112 108 107 108 106 105
11 351 336 328 342 336 322 317 312 309 309 309 305 310 313 307 257 189 147 62 21 32 127 129 132 126 126 125 120 115 112 109 108 104 100 102 109 116
2 341 348 345 337 334 345 341 338 338 328 314 313 306 302 308 313 280 135 139 107 9 85 75 106 99 95 105 111 107 110 110 115 114 115 110 111 116
352 345 350 349 345 345 334 339 343 351 354 330 312 311 306 314 322 34 41 55 73 61 95 75 67 84 90 106 108 107 105 106 109 124 116 129 127 126
357 352 358 346 345 349 354 339 340 3 0 359 349 336 308 328 46 92 99 97 85 78 76 72 58 67 78 90 107 113 111 118 127 124 139 139 135 130
352 328 352 352 357 3 352 1 4 5 352 2 15 25 32 45 74 107 110 116 109 67 54 101 82 83 62 76 92 106 107 115 132 164 152 146 145 142
5 330 330 357 8 21 27 25 12 358 352 353 2 13 23 25 34 36 46 114 119 87 57 87 124 114 77 24 65 97 124 119 127 228 152 152 155 152
53 317 342 349 36 36 42 46 33 346 354 3 19 18 29 29 31 37 41 43 59 56 72 98 126 85 64 104 61 75 86 101 141 194 160 154 165 171
125 246 321 77 20 45 35 53 46 22 11 29 42 25 32 32 31 45 52 56 50 53 54 73 87 93 119 129 116 61 68 98 91 83 96 132 143 140
137 130 60 45 55 37 50 56 42 29 25 48 42 36 30 33 20 43 56 65 57 43 40 69 92 85 71 107 120 122 117 67 80 104 97 92 92 80
102 82 79 70 49 59 37 43 38 43 80 66 16 342 337 60 51 32 63 65 71 54 48 56 68 82 88 76 103 94 89 126 101 80 97 79 76 67
113 63 49 31 8 6 6 44 25 34 71 29 47 12 11 43 47 18 43 59 76 70 60 52 66 72 65 97 94 91 96 78 47 59 63 63 49 43
76 110 127 148 170 145 15 40 12 40 66 90 71 53 23 21 54 59 67 77 85 74 73 31 65 80 63 54 53 75 54 66 27 38 48 49 326 334
123 149 166 184 198 177 195 155 199 208 136 90 93 74 56 47 48 58 75 88 80 73 47 29 41 53 74 79 351 47 101 51 49 40 47 171 262 289
154 163 176 189 196 180 177 175 148 78 82 108 90 80 64 71 63 77 73 88 85 57 60 40 47 41 86 148 136 283 40 94 80 14 347 320 275 275
195 176 175 179 195 186 175 174 153 165 153 133 119 108 102 98 66 67 87 81 97 68 89 64 327 19 110 99 45 349 333 45 59 153 240 233 305 322
179 193 193 179 184 181 171 161 132 135 141 132 132 125 133 128 129 128 106 112 91 126 116 26 0 34 54 93 170 229 289 322 342 348 337 311 172 272
183 188 185 181 183 173 157 161 166 165 165 149 144 147 150 125 130 117 119 109 124 98 92 58 16 33 59 88 145 246 330 312 323 329 300 308 293 290